Terug naar catalogus

COSMOS 1799

ActiefMilitairLEO
NORAD 17143·PAYLOAD·🇷🇺 Russia

Gelanceerd Nov 21, 1986 vanaf Plesetsk Cosmodrome

Loading…

Volgende Passages (komende 24 uur)

TLE

VersSource: Space-Track

Epoch: Sep 14, 2026, 18:00 UTC

1 17143U 86092F   26257.75060674 -.00000004  00000-0  75730-4 0  9999
2 17143  74.0180   6.4949 0037347  23.5987 143.2431 12.55280127824496

Volg COSMOS 1799 in realtime met AllMySat

Download on the App Store